Location: Eaton Estates
(41.3089°N, 82.0057°W)
Time: 16:52:33
(UTC+00:00)

ASTEX 1 - Pass Details

Date: 17 June 2021
Orbit: 720 x 743 km, 92.7° (Epoch: 02 August)

Event Time Altitude Azimuth Distance (km) Brightness Sun altitude
Exits shadow 08:57:11 - 192° (SSW) 2,567 5.7 -9.3°
Reaches altitude 10° 08:58:02 10° 195° (SSW) 2,238 5.4 -9.2°
Maximum altitude 09:02:47 45° 268° (W) 993 3.8 -8.5°
Drops below altitude 10° 09:07:33 10° 342° (NNW) 2,241 6.2 -7.9°
Sets 09:09:56 0° 348° (NNW) 3,164 7.1 -7.5°
